Location: Bluff Heights
(33.7692°N, 118.1592°W)
Time: 10:28:19
(UTC+00:00)

Tiros 1 - Pass Details

Date: 24 July 2021
Orbit: 630 x 663 km, 48.4° (Epoch: 22 September)

Event Time Altitude Azimuth Distance (km) Brightness Sun altitude
Rises 11:56:28 0° 302° (WNW) 2,923 10.3 -12.2°
Reaches altitude 10° 11:58:53 10° 295° (WNW) 2,009 9.4 -11.8°
Maximum altitude 12:03:15 43° 225° (SW) 890 7.4 -11.0°
Drops below altitude 10° 12:07:35 10° 154° (SSE) 1,995 9.6 -10.3°
Sets 12:09:58 0° 147° (SSE) 2,900 10.5 -9.9°
